FENGYUN 1C DEB, 31179

Orbit data source: Space-Track

FENGYUN 1C DEB, 31179 is space debris in SSO originally from a launch on Mon, 10 May 1999 UTC launched from the Taiyaun Space Center, China (TSC). Fengyun 1C debris stems from the Chinese weather satellite Fengyun-1C, which was intentionally destroyed by a Chinese anti-satellite missile in 2007. This event dramatically increased the amount of space debris, with thousands of trackable fragments posing hazards to satellites and human spaceflight. The Fengyun 1C debris cloud has become a focal point in discussions about space sustainability and the need for international regulations to prevent the creation of new debris.

Loading next visibility...
Identifier
31179, 1999-025BJH
Orbit
SSO
Country
Flag of CNCN / PRC
Related business
Manufacturer
Unknown
Mission
Spacecraft
Bus & Motor
Unknown
Mass
Unknown
Launch date (UTC)
1999-05-10 (27 years ago)
Launch vehicle
Unknown
Launch site
Taiyaun Space Center, China (TSC)
Object type
Payload
Rocket body
Debris
Shape & HBR
Unknown shape, 0.1 m
Radar Cross Section
Small (<0.1 m²)

Expand to show TLE details & history
Last TLE update: 1 week ago

TLE from 1 week ago
0 FENGYUN 1C DEB
1 31179U 99025BJH 26063.27452208  .00001804  00000-0  11896-2 0  9993
2 31179  99.0145  86.0405 0216289 138.1101 223.6836 13.92190422630751
Epoch: 2026-03-04T06:35Z
TLE epoch observation values (Epoch: 2026-03-04T06:35:18.707Z)
Latitude
-0.00006°
Longitude
-174.82901°
Altitude
1,039.615 km
Speed
7.274 km/s
True Right ascension
05h 44m 09s
True Declination
0° 00' 00"
Sunlit
Object was in daylight at epoch
Visualization orbit readout
Latitude
Unknown
Longitude
Unknown
Altitude
Unknown
Speed
Unknown
Apparent Right ascension
Unknown
Apparent Declination
Unknown
Sunlit
N/A
Visualization observer readout
Local Sidereal Time
19:06:16
Azimuth
Unknown
Elevation
Unknown
Doppler factor
Unknown
Orbital elements
Apogee altitude
1,075.984 km
Perigee altitude
760.362 km
Semi-major axis
7,296.31 km
Eccentricity
0.02163
Inclination
99.0145°
RAAN
86.0405°
Arg. of periapsis
138.1101°
True anomaly
222.00486°
Mean anomaly
223.6836°
Eccentric anomaly
222.84096°
Mean motion
3.48248 °/min
Orbital period
103.37 mins
BSTAR
0.0011896
Loading maneuver chart data...
Computing Atmospheric mass density...

Documentation

Showing up to 5 results
|